Location: Cahas Mountain Overlook
(37.0833°N, 80.1000°W)
Time: 19:48:32
(UTC-04:00)

Tiros 1 - Pass Details

Date: 10 February 2026
Orbit: 618 x 649 km, 48.4° (Epoch: 13 March)

Event Time Altitude Azimuth Distance (km) Brightness Sun altitude
Rises 15:29:53 0° 304° (NW) 2,885 10.7 24.3°
Reaches altitude 10° 15:32:38 10° 320° (NW) 1,978 9.7 23.9°
Maximum altitude 15:36:12 22° 12° (NNE) 1,347 8.5 23.3°
Drops below altitude 10° 15:39:47 10° 64° (ENE) 1,981 9.2 22.8°
Sets 15:42:32 0° 80° (E) 2,889 10.0 22.4°
